Location: Kaltenbach
(49.2000°N, 7.7500°E)
Time: 11:11:28
(UTC+00:00)

USA 267 - Pass Details

Date: 24 January 2020
Orbit: 1099 x 1108 km, 123.0° (Epoch: 10 February)

Event Time Altitude Azimuth Distance (km) Brightness Sun altitude
Exits shadow 18:30:19 30° 45° (NE) 1,863 4.1 -22.4°
Maximum altitude 18:33:23 53° 345° (NNW) 1,339 3.7 -22.9°
Drops below altitude 10° 18:39:40 10° 271° (W) 2,962 6.6 -23.9°
Sets 18:42:13 0° 267° (W) 3,920 7.6 -24.3°
